"Pseudo-MPEC" for P12oVVf

Created 2026 Aug 14 18:35:06 UT using Find_Orb

Click here for an explanation of pseudo-MPECs

 
 Astrometry: 
     P12oVVf 0C2026 07 13.49630021 14 41.587-08 37 13.06   ~8E15 22.34GVNEOCPF51
     P12oVVf 0C2026 07 13.52319921 14 42.979-08 37 40.79   ~8E15 22.29GVNEOCPF51
     P12oVVf 0C2026 07 20.48124821 21 15.561-10 54 41.39   ~8E15 21.38GVNEOCPF51
     P12oVVf 0C2026 07 20.49373121 21 16.144-10 54 57.82   ~8E15 21.89GVNEOCPF51
     P12oVVf*0C2026 08 07.44619421 35 40.080-18 52 49.81   ~87D5 21.07wXNEOCPF51
     P12oVVf 0C2026 08 07.45616221 35 40.436-18 53 07.45   ~87D5 21.27wXNEOCPF51
     P12oVVf 0C2026 08 07.46614221 35 40.788-18 53 25.13   ~87D5 21.15wXNEOCPF51
     P12oVVf 0C2026 08 07.55676321 35 44.026-18 56 05.26   ~87Go 20.76GVNEOCPF51
     P12oVVf 0C2026 08 07.55758321 35 44.064-18 56 06.61   ~87Go 20.71GVNEOCPF51
     P12oVVf  C2026 08 09.32836921 37 02.113-19 48 49.41   ~898o 20.8 GWNEOCPH01
     P12oVVf  C2026 08 09.33499521 37 02.351-19 49 01.28   ~898o 21.0 GWNEOCPH01
     P12oVVf  C2026 08 09.34592221 37 02.749-19 49 20.49   ~898o 21.0 GWNEOCPH01
     P12oVVf  C2026 08 09.35871121 37 03.214-19 49 43.44   ~898o 20.6 GWNEOCPH01
     P12oVVf 0C2026 08 12.41762421 39 16.276-21 20 35.86   ~8CBo 20.78wXNEOCPF51
     P12oVVf 0C2026 08 12.42877021 39 16.659-21 20 55.56   ~8CBo 20.80wXNEOCPF51
     P12oVVf 0C2026 08 12.43996921 39 17.038-21 21 15.40   ~8CBo 20.87wXNEOCPF51
     P12oVVf 0C2026 08 12.45111721 39 17.421-21 21 35.49   ~8CBo 21.30wXNEOCPF51

Station data:
(F51) Pan-STARRS 1, Haleakala  (N20.707234 W156.255910)  US/Hawaii.
   Observers J. Herman, T. Lowe, P. Minguez, A. Schultz, I. Smith. Measurers
   K. Chambers, T. de Boer, J. Fairlamb, H. Gao, M. Huber, C.-C. Lin, E.
   Magnier, Y. Ramanjooloo, R. Wainscoat, R. Weryk. 1.8-m Ritchey-Chrétien +
   CCD.
(H01) Magdalena Ridge Observatory, Socorro  (N33.984833 W107.189333)  US/New
   Mexico.  Observers W. H. Ryan, E. V. Ryan. Measurer W. H. Ryan. 2.4-m
   f/8.9 reflector + CCD.

Orbital elements:  P12oVVf
   Perihelion 2026 Aug 24.290230 +/- 0.00305 TT =  6:57:55.9 (JD 2461276.790230)
Epoch 2026 Aug 12.0 TT = JDT 2461264.5   Earth MOID: 0.4149   Ma: 0.0406
M 357.148833479 +/- 0.0008          (J2000 ecliptic)             AutoNEOCP
n   0.231986416 +/- 6.17e-5         Peri.  197.561224 +/- 0.0020
a   2.623177499 +/- 0.000465        Node   130.538887 +/- 0.00034
e   0.45790318 +/- 7.66e-5          Incl.   12.595280 +/- 0.0015
P   4.24856                H 21.79  G  0.15   U  6.2
q 1.422016161 +/- 5.15e-5    Q 3.824338838 +/- 0.000879
From 17 observations 2026 July 13-Aug. 12; mean residual 0".09
Residuals in arcseconds: 
260713 F51  .17+  .15-    260807 F51  .07+  .04+    260809 H01  .18+  .07-    
260713 F51  .07-  .09+    260807 F51  .01-  .08-    260812 F51  .01+  .07-    
260720 F51  .13-  .02+    260807 F51  .10+  .01+    260812 F51  .00   .10+    
260720 F51  .03-  .08+    260809 H01  .03-  .04-    260812 F51  .08-  .19+    
260807 F51  .01-  .12-    260809 H01  .01-  .10-    260812 F51  .07-  .11-    
260807 F51  .06+  .02-    260809 H01  .09+  .14+    

Ephemerides (geocentric):
Date (UTC) HH   RA             Dec           delta  r     elong  mag " sig PA
---- --------  ------------   ------------  ------ ------ -----  --- --------
2026 08 14 19  21 40 58.906   -22 30 10.12  .41519 1.4250 171.7 21.1 .078  90
2026 08 14 20  21 41 00.718   -22 31 23.00  .41519 1.4250 171.7 21.1 .079  90
2026 08 14 21  21 41 02.531   -22 32 35.86  .41519 1.4250 171.6 21.1 .080  90
2026 08 14 22  21 41 04.344   -22 33 48.70  .41520 1.4250 171.6 21.1 .080  90
2026 08 14 23  21 41 06.157   -22 35 01.51  .41520 1.4249 171.6 21.1 .081  90
2026 08 15 00  21 41 07.970   -22 36 14.29  .41520 1.4249 171.6 21.1 .082  90
2026 08 15 01  21 41 09.784   -22 37 27.05  .41521 1.4249 171.5 21.1 .082  91
2026 08 15 02  21 41 11.598   -22 38 39.78  .41521 1.4249 171.5 21.1 .083  91
2026 08 15 03  21 41 13.413   -22 39 52.49  .41522 1.4248 171.5 21.1 .084  91
2026 08 15 04  21 41 15.227   -22 41 05.16  .41522 1.4248 171.4 21.1 .085  91
2026 08 15 05  21 41 17.043   -22 42 17.81  .41523 1.4248 171.4 21.1 .085  91
2026 08 15 06  21 41 18.858   -22 43 30.43  .41523 1.4248 171.4 21.1 .086  91
2026 08 15 07  21 41 20.674   -22 44 43.03  .41524 1.4247 171.4 21.1 .087  91
2026 08 15 08  21 41 22.490   -22 45 55.60  .41525 1.4247 171.3 21.1 .088  91
2026 08 15 09  21 41 24.307   -22 47 08.14  .41525 1.4247 171.3 21.1 .088  92
2026 08 15 10  21 41 26.124   -22 48 20.65  .41526 1.4247 171.3 21.1 .089  92
2026 08 15 11  21 41 27.941   -22 49 33.13  .41527 1.4246 171.2 21.1 .090  92
2026 08 15 12  21 41 29.759   -22 50 45.58  .41527 1.4246 171.2 21.1 .090  92
2026 08 15 13  21 41 31.577   -22 51 58.01  .41528 1.4246 171.2 21.1 .091  92
2026 08 15 14  21 41 33.396   -22 53 10.41  .41529 1.4246 171.1 21.1 .092  92
2026 08 15 15  21 41 35.215   -22 54 22.77  .41530 1.4245 171.1 21.1 .093  92
2026 08 15 16  21 41 37.034   -22 55 35.11  .41531 1.4245 171.1 21.1 .093  92
2026 08 15 17  21 41 38.854   -22 56 47.42  .41531 1.4245 171.0 21.1 .094  93
2026 08 15 18  21 41 40.674   -22 57 59.70  .41532 1.4245 171.0 21.1 .095  93
2026 08 15 19  21 41 42.495   -22 59 11.95  .41533 1.4244 171.0 21.1 .096  93
2026 08 15 20  21 41 44.316   -23 00 24.17  .41534 1.4244 170.9 21.1 .096  93
2026 08 15 21  21 41 46.137   -23 01 36.35  .41535 1.4244 170.9 21.1 .097  93
2026 08 15 22  21 41 47.959   -23 02 48.51  .41536 1.4244 170.9 21.1 .098  93
2026 08 15 23  21 41 49.781   -23 04 00.64  .41537 1.4243 170.9 21.1 .099  93
2026 08 16 00  21 41 51.604   -23 05 12.74  .41539 1.4243 170.8 21.1 .099  94
2026 08 16 01  21 41 53.427   -23 06 24.80  .41540 1.4243 170.8 21.1 .100  94
2026 08 16 02  21 41 55.251   -23 07 36.83  .41541 1.4243 170.8 21.1 .101  94
2026 08 16 03  21 41 57.075   -23 08 48.84  .41542 1.4242 170.7 21.1 .102  94
2026 08 16 04  21 41 58.900   -23 10 00.81  .41543 1.4242 170.7 21.1 .102  94
2026 08 16 05  21 42 00.725   -23 11 12.74  .41545 1.4242 170.7 21.2 .103  94
2026 08 16 06  21 42 02.550   -23 12 24.65  .41546 1.4242 170.6 21.2 .104  94
2026 08 16 07  21 42 04.376   -23 13 36.52  .41547 1.4242 170.6 21.2 .105  94
2026 08 16 08  21 42 06.203   -23 14 48.37  .41548 1.4241 170.6 21.2 .105  95
2026 08 16 09  21 42 08.030   -23 16 00.17  .41550 1.4241 170.5 21.2 .106  95
2026 08 16 10  21 42 09.857   -23 17 11.95  .41551 1.4241 170.5 21.2 .107  95
2026 08 16 11  21 42 11.685   -23 18 23.69  .41553 1.4241 170.5 21.2 .108  95
2026 08 16 12  21 42 13.513   -23 19 35.40  .41554 1.4240 170.4 21.2 .109  95
2026 08 16 13  21 42 15.342   -23 20 47.08  .41556 1.4240 170.4 21.2 .109  95
2026 08 16 14  21 42 17.172   -23 21 58.72  .41557 1.4240 170.4 21.2 .110  95
2026 08 16 15  21 42 19.002   -23 23 10.33  .41559 1.4240 170.3 21.2 .111  95
2026 08 16 16  21 42 20.832   -23 24 21.90  .41560 1.4240 170.3 21.2 .112  96
2026 08 16 17  21 42 22.663   -23 25 33.44  .41562 1.4239 170.3 21.2 .112  96
2026 08 16 18  21 42 24.495   -23 26 44.95  .41564 1.4239 170.2 21.2 .113  96